Weather History for MCMWTC BRIDGEPORT, CA, CA

Change the Weather History Date:

Thursday, April 24, 2014

  Actual Average (KTVL) Record (KTVL)
Temperature  
Mean Temperature 42 °F 42 °F  
Max Temperature 60 °F 57 °F 70 °F (1977)
Min Temperature 26 °F 28 °F 19 °F (2008)
Degree Days  
Heating Degree Days 24 23  
Month to date heating degree days 607  
Since 1 July heating degree days 6759  
Cooling Degree Days 0 0  
Month to date cooling degree days 0  
Year to date cooling degree days 0  
Moisture  
Dew Point 23 °F    
Average Humidity 45    
Maximum Humidity 69    
Minimum Humidity 26    
Precipitation  
Precipitation 0.00 in - 0.68 in (1969)
Month to date precipitation  
Year to date precipitation  
Sea Level Pressure  
Sea Level Pressure 29.96 in    
Wind  
Wind Speed 7 mph (SW)    
Max Wind Speed 25 mph    
Max Gust Speed 33 mph    
Visibility 10 miles    
Events      
T = Trace of Precipitation, MM = Missing Value Source: NWS Daily Summary

Daily Weather History Graph

Daily Weather History Graph

Search for Another Location

Airport:

Trip Planner

Search our weather history database for the weather conditions in past years. The results will help you decide how hot, cold, wet, or windy it might be!

Date:

Astronomy

Apr. 24, 2014 Rise Set
Actual Time 6:09 AM PDT 7:43 PM PDT
Civil Twilight 5:41 AM PDT 8:11 PM PDT
Nautical Twilight 5:08 AM PDT 8:44 PM PDT
Astronomical Twilight 4:32 AM PDT 9:20 PM PDT
Moon 3:19 AM PDT (4/24) 3:07 PM PDT (4/24)
Length of Visible Light 14h 29m
Length of Day
13h 33m
Waning Crescent, 23% of the Moon is Illuminated
Apr 24
Waning Crescent
Apr 28
New
May 6
First Quarter
May 14
Full
May 21
Last Quarter

Hourly Weather History & Observations

Time (PDT) Temp. Windchill Dew Point Humidity Pressure Visibility Wind Dir Wind Speed Gust Speed Precip Events Conditions
12:52 AM 34.0 °F 31.0 °F 16.0 °F 48% 29.98 in 10.0 mi North 3.5 mph - N/A   Clear
1:52 AM 30.9 °F - 16.0 °F 54% 29.99 in 10.0 mi Calm Calm - N/A   Overcast
2:52 AM 30.0 °F - 17.1 °F 59% 29.98 in 10.0 mi Calm Calm - N/A   Clear
3:52 AM 28.9 °F - 18.0 °F 64% 29.99 in 10.0 mi Calm Calm - N/A   Partly Cloudy
4:52 AM 27.0 °F - 18.0 °F 69% 30.01 in 10.0 mi Calm Calm - N/A   Clear
5:52 AM 26.1 °F - 17.1 °F 69% 30.04 in 10.0 mi Calm Calm - N/A   Clear
6:52 AM 28.0 °F - 18.0 °F 66% 30.05 in 10.0 mi Calm Calm - N/A   Clear
7:52 AM 35.1 °F - 21.0 °F 57% 30.04 in 10.0 mi Calm Calm - N/A   Clear
8:52 AM 46.0 °F - 21.0 °F 37% 29.99 in 10.0 mi Calm Calm - N/A   Partly Cloudy
9:52 AM 54.0 °F - 19.9 °F 26% 29.96 in 10.0 mi South 10.4 mph - N/A   Scattered Clouds
10:52 AM 53.1 °F - 24.1 °F 32% 29.99 in 10.0 mi WSW 16.1 mph 25.3 mph N/A   Mostly Cloudy
11:52 AM 55.9 °F - 25.0 °F 30% 29.99 in 10.0 mi West 12.7 mph 20.7 mph N/A   Mostly Cloudy
12:52 PM 55.9 °F - 26.1 °F 32% 29.96 in 10.0 mi WNW 13.8 mph 27.6 mph N/A   Mostly Cloudy
1:52 PM 55.9 °F - 28.0 °F 34% 29.96 in 10.0 mi WSW 11.5 mph 26.5 mph N/A   Mostly Cloudy
2:52 PM 57.9 °F - 28.9 °F 33% 29.94 in 10.0 mi SSW 20.7 mph 31.1 mph N/A   Mostly Cloudy
2:59 PM 57.0 °F - 28.9 °F 34% 30.03 in 10.0 mi SSW 15.0 mph 31.1 mph N/A   Mostly Cloudy
3:52 PM 57.9 °F - 28.0 °F 32% 29.92 in 10.0 mi WSW 12.7 mph 26.5 mph N/A   Mostly Cloudy
4:52 PM 55.9 °F - 28.9 °F 36% 29.93 in 10.0 mi WSW 12.7 mph 25.3 mph N/A   Mostly Cloudy
5:52 PM 54.0 °F - 27.0 °F 35% 29.93 in 10.0 mi SW 10.4 mph 20.7 mph N/A   Mostly Cloudy
6:52 PM 46.9 °F - 28.9 °F 50% 29.95 in 10.0 mi SW 16.1 mph 28.8 mph N/A   Mostly Cloudy
7:52 PM 46.0 °F 40.2 °F 23.0 °F 40% 29.92 in 10.0 mi SW 12.7 mph 28.8 mph N/A   Scattered Clouds
8:52 PM 44.1 °F 38.1 °F 27.0 °F 51% 29.89 in 10.0 mi SW 11.5 mph 19.6 mph N/A   Partly Cloudy
9:52 PM 43.0 °F 34.8 °F 25.0 °F 49% 29.85 in 10.0 mi WSW 18.4 mph 33.4 mph N/A   Scattered Clouds
10:52 PM 43.0 °F 35.1 °F 25.0 °F 49% 29.81 in 10.0 mi WSW 17.3 mph 28.8 mph N/A   Clear
11:52 PM 42.1 °F 32.1 °F 23.0 °F 47% 29.78 in 10.0 mi SW 25.3 mph 32.2 mph N/A   Partly Cloudy